M I D A S
Marine Information and Data Acquisition System
Tripno 1818 of the Zeeleeuw from 2009-09-29 06:51:08 to 2009-09-29 16:20:53
Back to CruiseResearch ActivitiesStationsMapUnderway DataData graphs

EquipmentUnitsComments
TimeDGPSUTC
LatitudeDGPSDM.mWGS84
LongitudeDGPSDM.mWGS84
SpeedMeteo Stationm/sRelative wind speed
DirectionMeteo StationdegRelative wind direction
TemperatureMeteo Stationdeg CelciusAir temperature
PressureMeteo StationPaAtmospheric pressure
HumidityMeteo Station%Relative humidity
Missing or incorrect values are displayed as -999
Metereological data collected by the RV Zeeleeuw from 2009-09-29 07:01:30 to 2009-09-29 16:25:40
Time Latitude Longitude Speed Direction Temperature Pressure Humidity
2009-09-29 07:02 51°13.675 2°55.913 4.3 82 16 102120 40
2009-09-29 07:03 51°13.692 2°55.838 4.3 82 16 102120 44
2009-09-29 07:04 51°13.699 2°55.777 4.4 86 16 102120 45
2009-09-29 07:05 51°13.705 2°55.789 4.1 281 16 102120 39
2009-09-29 07:06 51°13.706 2°55.785 3.4 279 16 102120 40
2009-09-29 07:07 51°13.714 2°55.79 4.2 278 16 102110 41
2009-09-29 07:08 51°13.748 2°55.736 4.3 279 16 102110 46
2009-09-29 07:09 51°13.806 2°55.658 5.7 279 15.9 102110 45
2009-09-29 07:10 51°13.887 2°55.593 6.2 279 15.9 102110 44
2009-09-29 07:11 51°13.972 2°55.53 6.8 284 15.9 102110 40
2009-09-29 07:12 51°14.059 2°55.468 6.9 277 15.9 102110 46
2009-09-29 07:13 51°14.142 2°55.4 8.4 278 15.9 102110 40
2009-09-29 07:14 51°14.23 2°55.293 10.3 279 15.9 102110 43
2009-09-29 07:15 51°14.316 2°55.146 10.3 283 15.9 102110 45
2009-09-29 07:16 51°14.423 2°55.008 11 284 15.9 102090 43
2009-09-29 07:17 51°14.558 2°54.891 9.9 280 15.9 102100 44
2009-09-29 07:18 51°14.705 2°54.759 12.6 282 15.9 102090 44
2009-09-29 07:19 51°14.864 2°54.624 12 286 15.9 102080 42
2009-09-29 07:20 51°15.023 2°54.481 11 277 15.9 102080 45
2009-09-29 07:21 51°15.178 2°54.343 11.5 280 15.9 102080 42
2009-09-29 07:22 51°15.335 2°54.202 11.3 279 15.9 102090 43
2009-09-29 07:23 51°15.49 2°54.064 12.8 282 15.8 102080 44
2009-09-29 07:24 51°15.648 2°53.922 12.1 278 15.9 102090 42
2009-09-29 07:25 51°15.801 2°53.785 10.9 284 15.9 102110 44
2009-09-29 07:26 51°15.958 2°53.641 13 281 15.9 102080 42
2009-09-29 07:27 51°16.109 2°53.504 13.2 283 15.9 102110 43
2009-09-29 07:28 51°16.263 2°53.363 12.2 281 15.9 102090 43
2009-09-29 07:29 51°16.424 2°53.225 10.9 286 15.9 102100 45
2009-09-29 07:30 51°16.583 2°53.112 11.5 281 15.9 102110 44
2009-09-29 07:31 51°16.743 2°52.997 11 283 15.9 102090 45
2009-09-29 07:32 51°16.899 2°52.866 11.8 276 16 102100 45
2009-09-29 07:33 51°17.053 2°52.719 11.5 278 15.9 102100 42
2009-09-29 07:34 51°17.2 2°52.582 11.4 285 15.9 102100 42
2009-09-29 07:35 51°17.376 2°52.526 11.8 281 15.9 102100 42
2009-09-29 07:36 51°17.55 2°52.533 12 286 15.9 102090 43
2009-09-29 07:37 51°17.734 2°52.546 10.9 281 15.9 102110 44
2009-09-29 07:38 51°17.915 2°52.555 11.8 283 15.8 102110 42
2009-09-29 07:39 51°18.09 2°52.561 11.9 281 15.8 102100 44
2009-09-29 07:40 51°18.27 2°52.567 10.4 282 15.8 102100 42
2009-09-29 07:41 51°18.447 2°52.573 10.3 282 15.8 102110 44
2009-09-29 07:42 51°18.631 2°52.578 10.9 280 15.8 102120 42
2009-09-29 07:43 51°18.806 2°52.583 10.7 282 15.8 102110 43
2009-09-29 07:44 51°18.982 2°52.588 10.6 279 15.8 102090 45
2009-09-29 07:45 51°19.166 2°52.595 13.1 284 15.8 102100 43
2009-09-29 07:46 51°19.347 2°52.6 11 285 15.8 102100 45
2009-09-29 07:47 51°19.53 2°52.602 10.9 277 15.9 102110 42
2009-09-29 07:48 51°19.708 2°52.618 11.3 286 15.8 102110 45
2009-09-29 07:49 51°19.891 2°52.641 11.4 283 15.9 102110 43
2009-09-29 07:50 51°20.069 2°52.664 10.9 278 15.8 102100 42
2009-09-29 07:51 51°20.254 2°52.685 11.3 277 15.9 102090 43
2009-09-29 07:52 51°20.431 2°52.707 10.8 283 15.8 102090 42
2009-09-29 07:53 51°20.619 2°52.731 12.1 282 15.9 102110 42
2009-09-29 07:54 51°20.798 2°52.754 10.5 284 15.9 102100 45
2009-09-29 07:55 51°20.974 2°52.776 12 282 15.9 102110 45
2009-09-29 07:56 51°21.156 2°52.808 12.5 285 15.8 102090 42
2009-09-29 07:57 51°21.336 2°52.847 11.4 281 15.9 102100 42
2009-09-29 07:58 51°21.517 2°52.888 12.8 279 15.9 102090 43
2009-09-29 07:59 51°21.697 2°52.931 10.4 280 15.9 102100 43
2009-09-29 08:00 51°21.881 2°52.98 12.7 281 15.9 102110 44
2009-09-29 08:01 51°22.062 2°53.026 11.8 282 15.9 102100 44
2009-09-29 08:02 51°22.242 2°53.073 11.2 278 15.9 102080 44
2009-09-29 08:03 51°22.421 2°53.118 11.2 278 15.9 102090 43
2009-09-29 08:04 51°22.602 2°53.165 11 279 15.9 102080 42
2009-09-29 08:05 51°22.785 2°53.209 12.7 285 15.9 102090 43
2009-09-29 08:06 51°22.968 2°53.252 10.9 279 15.9 102080 45
2009-09-29 08:07 51°23.151 2°53.299 11.2 283 15.9 102070 42
2009-09-29 08:08 51°23.331 2°53.344 10.5 282 15.9 102090 45
2009-09-29 08:09 51°23.513 2°53.391 12 284 15.9 102100 45
2009-09-29 08:10 51°23.701 2°53.44 10.9 277 15.9 102080 43
2009-09-29 08:11 51°23.886 2°53.488 9.8 283 15.9 102090 42
2009-09-29 08:12 51°24.073 2°53.536 11.3 278 15.9 102090 43
2009-09-29 08:13 51°24.247 2°53.579 12.4 284 15.9 102090 44
2009-09-29 08:14 51°24.431 2°53.626 11.3 278 15.9 102090 42
2009-09-29 08:15 51°24.611 2°53.67 11.9 278 15.9 102080 44
2009-09-29 08:16 51°24.797 2°53.715 10.4 284 15.9 102090 44
2009-09-29 08:17 51°24.976 2°53.761 11.4 280 15.9 102090 42
2009-09-29 08:18 51°25.16 2°53.81 11.7 277 15.9 102110 43
2009-09-29 08:19 51°25.342 2°53.853 12.1 284 15.9 102090 44
2009-09-29 08:20 51°25.512 2°53.897 10 282 15.8 102070 42
2009-09-29 08:21 51°25.691 2°53.935 13 283 15.8 102090 44
2009-09-29 08:22 51°25.869 2°53.955 11.7 282 15.9 102070 43
2009-09-29 08:23 51°26.054 2°53.969 10.9 280 15.8 102080 43
2009-09-29 08:24 51°26.237 2°53.987 11.3 280 15.8 102080 44
2009-09-29 08:25 51°26.424 2°54.003 10.5 284 15.8 102080 42
2009-09-29 08:26 51°26.607 2°54.022 11.3 280 15.8 102070 45
2009-09-29 08:27 51°26.784 2°54.04 11.5 281 15.8 102080 44
2009-09-29 08:28 51°26.97 2°54.063 10 280 15.7 102090 42
2009-09-29 08:29 51°27.154 2°54.085 11.1 284 15.8 102080 41
2009-09-29 08:30 51°27.341 2°54.108 11.8 282 15.8 102070 46
2009-09-29 08:31 51°27.528 2°54.128 10.9 285 15.8 102070 44
2009-09-29 08:32 51°27.716 2°54.147 11.6 281 15.7 102080 44
2009-09-29 08:33 51°27.895 2°54.167 11 282 15.8 102080 43
2009-09-29 08:34 51°28.077 2°54.184 11 283 15.7 102080 43
2009-09-29 08:35 51°28.262 2°54.2 11.1 284 15.7 102080 46
2009-09-29 08:36 51°28.44 2°54.218 9.9 280 15.7 102080 42
2009-09-29 08:37 51°28.624 2°54.236 11.7 285 15.7 102080 44
2009-09-29 08:38 51°28.805 2°54.255 11 285 15.7 102070 45
2009-09-29 08:39 51°28.994 2°54.271 11.2 286 15.7 102080 45
2009-09-29 08:40 51°29.179 2°54.291 12.1 281 15.7 102090 44
2009-09-29 08:41 51°29.359 2°54.309 10.6 282 15.7 102080 45
2009-09-29 08:42 51°29.546 2°54.331 9 282 15.7 102090 45
2009-09-29 08:43 51°29.728 2°54.357 11.4 278 15.7 102090 44
2009-09-29 08:44 51°29.914 2°54.381 10.5 278 15.7 102100 44
2009-09-29 08:45 51°30.098 2°54.408 11.8 283 15.7 102090 41
2009-09-29 08:46 51°30.284 2°54.432 11.1 280 15.6 102070 45
2009-09-29 08:47 51°30.47 2°54.459 10.1 278 15.7 102090 44
2009-09-29 08:48 51°30.662 2°54.486 9.6 279 15.7 102090 45
2009-09-29 08:49 51°30.848 2°54.516 11.2 279 15.7 102090 43
2009-09-29 08:50 51°31.038 2°54.538 10.9 282 15.6 102090 44
2009-09-29 08:51 51°31.223 2°54.561 11.6 282 15.6 102090 45
2009-09-29 08:52 51°31.407 2°54.582 9.9 25 15.6 102100 42
2009-09-29 08:53 51°31.594 2°54.603 10.3 284 15.7 102090 44
2009-09-29 08:54 51°31.779 2°54.625 10.9 21 15.7 102090 42
2009-09-29 08:55 51°31.964 2°54.647 10.9 286 15.7 102080 42
2009-09-29 08:56 51°32.148 2°54.657 11.8 23 15.6 102080 43
2009-09-29 08:57 51°32.336 2°54.663 10.5 280 15.7 102090 44
2009-09-29 08:58 51°32.52 2°54.673 11 279 15.6 102090 46
2009-09-29 08:59 51°32.706 2°54.684 10.6 28 15.7 102080 43
2009-09-29 09:00 51°32.895 2°54.689 12.1 277 15.7 102090 43
2009-09-29 09:01 51°33.079 2°54.696 10.8 20 15.7 102070 44
2009-09-29 09:02 51°33.256 2°54.745 8.4 284 15.7 102070 43
2009-09-29 09:03 51°33.344 2°54.844 8.4 254 15.7 102100 42
2009-09-29 09:04 51°33.397 2°54.922 8.5 278 15.7 102100 41
2009-09-29 09:05 51°33.437 2°54.987 6.3 262 15.7 102100 43
2009-09-29 09:06 51°33.467 2°55.043 5.4 264 15.8 102110 45
2009-09-29 09:07 51°33.489 2°55.092 5.1 281 15.7 102110 45
2009-09-29 09:08 51°33.511 2°55.141 5.4 264 15.7 102100 47
2009-09-29 09:09 51°33.532 2°55.189 6.8 282 15.8 102100 46
2009-09-29 09:10 51°33.555 2°55.236 4 282 15.9 102100 43
2009-09-29 09:11 51°33.58 2°55.288 4.4 265 15.9 102120 43
2009-09-29 09:12 51°33.599 2°55.332 7.6 260 15.8 102110 47
2009-09-29 09:13 51°33.613 2°55.366 8.4 284 15.8 102100 44
2009-09-29 09:14 51°33.625 2°55.4 6.7 280 15.8 102100 46
2009-09-29 09:15 51°33.631 2°55.43 7.9 284 15.8 102120 43
2009-09-29 09:16 51°33.633 2°55.46 5.7 279 15.8 102110 43
2009-09-29 09:17 51°33.636 2°55.488 5.7 279 15.8 102130 41
2009-09-29 09:18 51°33.638 2°55.515 6 86 15.7 102120 41
2009-09-29 09:19 51°33.639 2°55.541 7.6 266 15.7 102130 41
2009-09-29 09:20 51°33.641 2°55.567 7.3 83 15.8 102120 42
2009-09-29 09:21 51°33.641 2°55.594 6.9 29 15.7 102120 40
2009-09-29 09:22 51°33.643 2°55.62 5.4 284 15.7 102120 42
2009-09-29 09:23 51°33.645 2°55.646 5.7 283 15.8 102120 45
2009-09-29 09:24 51°33.645 2°55.67 5.9 84 15.7 102130 41
2009-09-29 09:25 51°33.646 2°55.695 7 284 15.7 102120 41
2009-09-29 09:26 51°33.648 2°55.722 6.1 268 15.7 102120 41
2009-09-29 09:27 51°33.65 2°55.748 5.2 279 15.7 102120 41
2009-09-29 09:28 51°33.651 2°55.775 5.5 266 15.6 102120 41
2009-09-29 09:29 51°33.651 2°55.8 6.6 287 15.7 102120 41
2009-09-29 09:30 51°33.651 2°55.824 6.1 269 15.7 102120 42
2009-09-29 09:31 51°33.652 2°55.85 6.6 283 15.6 102120 46
2009-09-29 09:32 51°33.654 2°55.876 6.4 285 15.6 102110 45
2009-09-29 09:33 51°33.655 2°55.902 6.9 270 15.6 102100 44
2009-09-29 09:34 51°33.656 2°55.926 6.3 281 15.6 102110 46
2009-09-29 09:35 51°33.658 2°55.953 6.2 282 15.6 102110 45
2009-09-29 09:36 51°33.661 2°55.981 5.7 284 15.7 102110 46
2009-09-29 09:37 51°33.663 2°56.009 5.1 280 15.6 102110 46
2009-09-29 09:38 51°33.666 2°56.036 5.8 278 15.7 102110 47
2009-09-29 09:39 51°33.669 2°56.063 4.9 279 15.6 102110 46
2009-09-29 09:40 51°33.672 2°56.091 6.3 279 15.6 102110 47
2009-09-29 09:41 51°33.677 2°56.122 5.3 280 15.6 102110 42
2009-09-29 09:42 51°33.682 2°56.152 6.1 285 15.6 102110 41
2009-09-29 09:43 51°33.683 2°56.178 4.9 285 15.6 102110 42
2009-09-29 09:44 51°33.683 2°56.204 5.3 265 15.6 102120 41
2009-09-29 09:45 51°33.684 2°56.229 6.5 284 15.7 102110 47
2009-09-29 09:46 51°33.687 2°56.256 7.2 81 15.7 102110 41
2009-09-29 09:47 51°33.692 2°56.286 6.4 277 15.6 102110 42
2009-09-29 09:48 51°33.696 2°56.313 4.7 283 15.6 102110 45
2009-09-29 09:49 51°33.699 2°56.34 5.4 284 15.6 102110 46
2009-09-29 09:50 51°33.701 2°56.368 7.4 286 15.7 102120 44
2009-09-29 09:51 51°33.703 2°56.396 5.2 269 15.6 102120 41
2009-09-29 09:52 51°33.705 2°56.423 6.9 270 15.7 102110 47
2009-09-29 09:53 51°33.708 2°56.45 7.5 269 15.7 102110 47
2009-09-29 09:54 51°33.709 2°56.476 6.7 26 15.6 102130 46
2009-09-29 09:55 51°33.713 2°56.502 6.7 270 15.6 102110 44
2009-09-29 09:56 51°33.715 2°56.529 5.5 281 15.7 102120 45
2009-09-29 09:57 51°33.719 2°56.558 6.7 281 15.6 102120 44
2009-09-29 09:58 51°33.723 2°56.586 5.7 265 15.6 102110 47
2009-09-29 09:59 51°33.726 2°56.613 5.5 266 15.6 102110 47
2009-09-29 10:00 51°33.729 2°56.64 5.3 263 15.6 102120 41
2009-09-29 10:01 51°33.732 2°56.666 6.8 77 15.7 102110 42
2009-09-29 10:02 51°33.735 2°56.693 5 265 15.7 102120 47
2009-09-29 10:03 51°33.74 2°56.72 7.8 269 15.6 102120 44
2009-09-29 10:04 51°33.744 2°56.749 6.8 270 15.6 102110 44
2009-09-29 10:05 51°33.747 2°56.775 6.3 266 15.6 102110 46
2009-09-29 10:06 51°33.751 2°56.802 5 283 15.6 102120 44
2009-09-29 10:07 51°33.755 2°56.829 6.5 25 15.7 102120 45
2009-09-29 10:08 51°33.76 2°56.858 4.3 264 15.7 102110 42
2009-09-29 10:09 51°33.766 2°56.886 5.1 265 15.7 102110 48
2009-09-29 10:10 51°33.78 2°56.928 6.2 270 15.7 102130 46
2009-09-29 10:11 51°33.803 2°57.033 4.9 28 15.8 102110 42
2009-09-29 10:12 51°33.774 2°57.139 5.7 32 15.7 102100 41
2009-09-29 10:13 51°33.715 2°57.155 6.5 6 15.7 102090 43
2009-09-29 10:14 51°33.673 2°57.108 7.7 357 15.7 102090 47
2009-09-29 10:15 51°33.645 2°57.053 8.7 355 15.7 102070 44
2009-09-29 10:16 51°33.62 2°57 8.2 357 15.5 102080 44
2009-09-29 10:17 51°33.592 2°56.95 7.7 353 15.6 102070 43
2009-09-29 10:18 51°33.567 2°56.895 8.5 353 15.6 102070 44
2009-09-29 10:19 51°33.535 2°56.832 9.1 345 15.6 102070 47
2009-09-29 10:20 51°33.516 2°56.749 9.5 346 15.6 102080 44
2009-09-29 10:21 51°33.486 2°56.672 9.3 278 15.5 102060 45
2009-09-29 10:22 51°33.462 2°56.59 9.7 279 15.5 102070 43
2009-09-29 10:23 51°33.438 2°56.506 8.7 351 15.6 102080 43
2009-09-29 10:24 51°33.404 2°56.43 9 348 15.6 102090 47
2009-09-29 10:25 51°33.386 2°56.343 8.6 341 15.5 102090 44
2009-09-29 10:26 51°33.36 2°56.261 9.5 353 15.6 102080 45
2009-09-29 10:27 51°33.338 2°56.193 8.7 282 15.6 102070 46
2009-09-29 10:28 51°33.334 2°56.171 7.8 276 15.6 102080 42
2009-09-29 10:29 51°33.335 2°56.174 8.2 356 15.7 102080 46
2009-09-29 10:30 51°33.336 2°56.196 8 5 15.6 102080 42
2009-09-29 10:31 51°33.341 2°56.228 8.3 15 15.6 102080 47
2009-09-29 10:32 51°33.347 2°56.26 7.9 20 15.6 102080 46
2009-09-29 10:33 51°33.354 2°56.292 6.6 23 15.6 102080 43
2009-09-29 10:34 51°33.361 2°56.323 6.3 21 15.6 102080 43
2009-09-29 10:35 51°33.369 2°56.355 6.9 27 15.7 102070 42
2009-09-29 10:36 51°33.377 2°56.386 7.7 22 15.7 102070 45
2009-09-29 10:37 51°33.384 2°56.416 6.8 17 15.7 102080 46
2009-09-29 10:38 51°33.391 2°56.445 7.3 18 15.7 102070 47
2009-09-29 10:39 51°33.396 2°56.474 7.7 15 15.8 102070 44
2009-09-29 10:40 51°33.402 2°56.502 7.4 19 15.7 102080 45
2009-09-29 10:41 51°33.408 2°56.532 7 15 15.7 102070 43
2009-09-29 10:42 51°33.415 2°56.563 7.6 16 15.7 102080 45
2009-09-29 10:43 51°33.421 2°56.591 7.5 21 15.8 102070 45
2009-09-29 10:44 51°33.427 2°56.62 8.2 15 15.7 102070 45
2009-09-29 10:45 51°33.433 2°56.651 8.1 23 15.8 102070 46
2009-09-29 10:46 51°33.44 2°56.679 7.2 22 15.7 102070 42
2009-09-29 10:47 51°33.447 2°56.707 6.9 19 15.7 102080 45
2009-09-29 10:48 51°33.453 2°56.735 7.7 22 15.8 102070 46
2009-09-29 10:49 51°33.46 2°56.764 7.4 27 15.7 102070 42
2009-09-29 10:50 51°33.466 2°56.791 7.1 23 15.7 102090 42
2009-09-29 10:51 51°33.473 2°56.819 7 25 15.8 102080 42
2009-09-29 10:52 51°33.48 2°56.847 6.9 23 15.8 102090 46
2009-09-29 10:53 51°33.488 2°56.874 7.7 26 15.8 102080 46
2009-09-29 10:54 51°33.495 2°56.902 6.7 28 15.7 102090 42
2009-09-29 10:55 51°33.5 2°56.93 7.7 21 15.7 102090 46
2009-09-29 10:56 51°33.506 2°56.956 7.9 21 15.8 102090 47
2009-09-29 10:57 51°33.513 2°56.983 7.2 21 15.9 102080 47
2009-09-29 10:58 51°33.517 2°57.007 7 19 15.7 102090 41
2009-09-29 10:59 51°33.521 2°57.031 7.7 16 15.7 102090 42
2009-09-29 11:00 51°33.526 2°57.055 8.5 13 15.8 102080 42
2009-09-29 11:01 51°33.531 2°57.08 6.2 24 15.9 102080 43
2009-09-29 11:02 51°33.536 2°57.105 8.3 17 15.9 102090 43
2009-09-29 11:03 51°33.54 2°57.131 8.1 19 15.8 102090 45
2009-09-29 11:04 51°33.544 2°57.156 7.5 21 15.8 102080 47
2009-09-29 11:05 51°33.548 2°57.18 6.9 19 15.8 102090 41
2009-09-29 11:06 51°33.549 2°57.201 8.2 13 15.8 102080 46
2009-09-29 11:07 51°33.554 2°57.226 8.3 17 15.8 102070 45
2009-09-29 11:08 51°33.56 2°57.253 7.7 22 15.9 102080 42
2009-09-29 11:09 51°33.566 2°57.28 8 24 15.9 102080 46
2009-09-29 11:10 51°33.572 2°57.307 7.2 24 15.9 102090 43
2009-09-29 11:11 51°33.578 2°57.333 7.5 23 15.8 102080 45
2009-09-29 11:12 51°33.583 2°57.359 7.1 18 15.8 102090 42
2009-09-29 11:13 51°33.587 2°57.385 6.7 17 15.9 102080 46
2009-09-29 11:14 51°33.589 2°57.407 6.8 14 15.8 102080 42
2009-09-29 11:15 51°33.593 2°57.43 7.3 14 15.9 102080 47
2009-09-29 11:16 51°33.583 2°57.435 7.2 5 15.9 102080 45
2009-09-29 11:17 51°33.549 2°57.316 9.9 280 15.8 102050 44
2009-09-29 11:18 51°33.493 2°57.147 11.6 283 15.8 102050 45
2009-09-29 11:19 51°33.454 2°56.953 11.3 281 15.8 102040 42
2009-09-29 11:20 51°33.405 2°56.76 11.2 279 15.8 102040 45
2009-09-29 11:21 51°33.338 2°56.585 10.2 353 15.8 102040 42
2009-09-29 11:22 51°33.274 2°56.409 10.3 351 15.8 102050 44
2009-09-29 11:23 51°33.226 2°56.339 8.8 15 15.8 102080 42
2009-09-29 11:24 51°33.221 2°56.355 6.9 24 15.8 102090 46
2009-09-29 11:25 51°33.222 2°56.378 7.6 30 15.7 102090 44
2009-09-29 11:26 51°33.225 2°56.402 8.2 27 15.8 102070 42
2009-09-29 11:27 51°33.229 2°56.425 7.8 20 15.8 102080 42
2009-09-29 11:28 51°33.233 2°56.448 8.1 18 15.7 102080 42
2009-09-29 11:29 51°33.238 2°56.472 6.2 15 15.8 102070 47
2009-09-29 11:30 51°33.244 2°56.498 8.2 17 15.8 102070 46
2009-09-29 11:31 51°33.251 2°56.526 6.7 19 15.8 102070 46
2009-09-29 11:32 51°33.257 2°56.553 6.9 26 15.8 102070 42
2009-09-29 11:33 51°33.263 2°56.581 8 24 15.8 102060 46
2009-09-29 11:34 51°33.267 2°56.609 6.5 26 15.8 102070 47
2009-09-29 11:35 51°33.271 2°56.634 8.9 24 15.8 102080 43
2009-09-29 11:36 51°33.274 2°56.659 7.5 23 15.8 102080 46
2009-09-29 11:37 51°33.281 2°56.685 7.7 14 15.9 102060 47
2009-09-29 11:38 51°33.287 2°56.714 7.2 18 15.9 102050 42
2009-09-29 11:39 51°33.295 2°56.741 7.8 20 15.8 102060 43
2009-09-29 11:40 51°33.301 2°56.765 8.2 26 15.8 102070 43
2009-09-29 11:41 51°33.307 2°56.792 7.3 24 15.7 102060 44
2009-09-29 11:42 51°33.314 2°56.817 7.6 24 15.7 102060 45
2009-09-29 11:43 51°33.32 2°56.842 8 26 15.8 102060 41
2009-09-29 11:44 51°33.326 2°56.868 7.9 20 15.8 102060 46
2009-09-29 11:45 51°33.332 2°56.895 8 26 15.9 102060 46
2009-09-29 11:46 51°33.339 2°56.921 8.2 25 15.8 102050 43
2009-09-29 11:47 51°33.345 2°56.948 7.3 26 15.7 102060 44
2009-09-29 11:48 51°33.351 2°56.973 6.4 26 15.8 102060 41
2009-09-29 11:49 51°33.358 2°56.999 7.4 22 15.8 102060 42
2009-09-29 11:50 51°33.366 2°57.026 8.6 31 15.8 102060 42
2009-09-29 11:51 51°33.374 2°57.051 6.6 31 15.8 102070 44
2009-09-29 11:52 51°33.38 2°57.073 7.5 27 15.8 102070 46
2009-09-29 11:53 51°33.385 2°57.097 7.3 27 15.8 102080 43
2009-09-29 11:54 51°33.391 2°57.12 7.1 32 15.8 102070 45
2009-09-29 11:55 51°33.396 2°57.141 7 26 15.7 102080 46
2009-09-29 11:56 51°33.402 2°57.162 7 26 15.8 102070 45
2009-09-29 11:57 51°33.409 2°57.184 6.8 23 15.8 102060 41
2009-09-29 11:58 51°33.415 2°57.205 6.4 27 15.9 102060 44
2009-09-29 11:59 51°33.421 2°57.227 7.3 25 15.8 102060 47
2009-09-29 12:00 51°33.426 2°57.248 7.9 25 15.8 102060 44
2009-09-29 12:01 51°33.431 2°57.27 6.9 24 15.8 102060 45
2009-09-29 12:02 51°33.433 2°57.29 7.3 16 15.8 102050 45
2009-09-29 12:03 51°33.437 2°57.31 7.7 20 15.8 102070 42
2009-09-29 12:04 51°33.441 2°57.33 8.3 24 15.8 102070 46
2009-09-29 12:05 51°33.446 2°57.351 7.8 21 15.8 102060 41
2009-09-29 12:06 51°33.45 2°57.375 7.4 21 15.9 102060 42
2009-09-29 12:07 51°33.453 2°57.396 7.7 22 15.8 102060 46
2009-09-29 12:08 51°33.426 2°57.365 7.9 281 15.8 102040 45
2009-09-29 12:09 51°33.403 2°57.2 10.7 278 15.8 102030 45
2009-09-29 12:10 51°33.381 2°56.968 12.1 284 15.9 102020 44
2009-09-29 12:11 51°33.313 2°56.768 9.6 353 15.8 102010 46
2009-09-29 12:12 51°33.26 2°56.681 9.3 11 15.9 102040 45
2009-09-29 12:13 51°33.25 2°56.685 8 11 15.8 102050 45
2009-09-29 12:14 51°33.252 2°56.704 8.4 18 15.8 102050 42
2009-09-29 12:15 51°33.255 2°56.724 7.7 21 15.8 102050 44
2009-09-29 12:16 51°33.257 2°56.744 7.1 25 15.9 102050 46
2009-09-29 12:17 51°33.259 2°56.763 6.3 24 15.9 102050 43
2009-09-29 12:18 51°33.262 2°56.783 6.7 21 16 102050 47
2009-09-29 12:19 51°33.266 2°56.803 7.6 18 16 102060 47
2009-09-29 12:20 51°33.272 2°56.824 6.1 20 15.9 102050 47
2009-09-29 12:21 51°33.278 2°56.846 6.7 23 16 102050 47
2009-09-29 12:22 51°33.283 2°56.867 6.6 21 15.9 102050 46
2009-09-29 12:23 51°33.288 2°56.889 6.4 21 15.9 102050 47
2009-09-29 12:24 51°33.294 2°56.911 6 19 16 102040 45
2009-09-29 12:25 51°33.3 2°56.936 6.6 24 16 102040 42
2009-09-29 12:26 51°33.306 2°56.958 6.5 13 16 102050 48
2009-09-29 12:27 51°33.312 2°56.979 7.3 11 16 102040 42
2009-09-29 12:28 51°33.32 2°57.005 8.5 23 16 102040 46
2009-09-29 12:29 51°33.327 2°57.029 7.9 23 15.9 102040 44
2009-09-29 12:30 51°33.333 2°57.053 7.3 23 15.8 102040 47
2009-09-29 12:31 51°33.341 2°57.077 7 26 15.8 102040 43
2009-09-29 12:32 51°33.347 2°57.1 7 23 15.8 102040 44
2009-09-29 12:33 51°33.348 2°57.118 7.5 11 15.9 102040 46
2009-09-29 12:34 51°33.336 2°57.103 7.3 358 15.9 102030 42
2009-09-29 12:35 51°33.349 2°57.037 9.6 278 15.8 102020 43
2009-09-29 12:36 51°33.405 2°57.02 6.9 281 15.9 102020 43
2009-09-29 12:37 51°33.445 2°57.065 5.7 280 16 102010 41
2009-09-29 12:38 51°33.468 2°57.131 6.7 87 16 102020 42
2009-09-29 12:39 51°33.491 2°57.204 6 284 15.9 102020 47
2009-09-29 12:40 51°33.518 2°57.264 5.7 285 15.9 102030 47
2009-09-29 12:41 51°33.54 2°57.305 6.5 283 15.9 102020 42
2009-09-29 12:42 51°33.556 2°57.333 5.8 279 16 102020 42
2009-09-29 12:43 51°33.568 2°57.356 6.7 279 16 102020 45
2009-09-29 12:44 51°33.576 2°57.38 8.7 283 16 102020 45
2009-09-29 12:45 51°33.588 2°57.406 8 280 16 102020 44
2009-09-29 12:46 51°33.622 2°57.485 5.7 75 16.1 102010 42
2009-09-29 12:47 51°33.601 2°57.611 5.3 29 16.1 102020 42
2009-09-29 12:48 51°33.524 2°57.602 7.6 -999 16 102010 41
2009-09-29 12:49 51°33.469 2°57.449 10.4 347 16 102000 44
2009-09-29 12:50 51°33.403 2°57.278 11.2 277 15.9 102010 42
2009-09-29 12:51 51°33.339 2°57.103 9.5 349 15.8 102010 44
2009-09-29 12:52 51°33.273 2°56.927 10.4 347 15.8 102010 44
2009-09-29 12:53 51°33.211 2°56.747 8.8 285 15.9 102020 46
2009-09-29 12:54 51°33.14 2°56.575 10.7 350 15.9 102000 42
2009-09-29 12:55 51°33.117 2°56.382 10.4 285 15.9 102020 43
2009-09-29 12:56 51°33.111 2°56.276 8.6 283 15.9 102030 44
2009-09-29 12:57 51°33.116 2°56.243 7.8 284 15.9 102020 45
2009-09-29 12:58 51°33.119 2°56.235 7.3 347 15.9 102020 47
2009-09-29 12:59 51°33.121 2°56.246 6.6 355 16 102020 44
2009-09-29 13:00 51°33.123 2°56.269 7.3 7 15.9 102010 42
2009-09-29 13:01 51°33.126 2°56.293 6.3 12 15.9 102020 46
2009-09-29 13:02 51°33.129 2°56.319 8.1 12 16 102020 46
2009-09-29 13:03 51°33.133 2°56.346 7.9 17 16 102020 42
2009-09-29 13:04 51°33.138 2°56.374 7.6 23 15.9 102010 42
2009-09-29 13:05 51°33.143 2°56.401 5.6 16 16 102020 42
2009-09-29 13:06 51°33.147 2°56.428 7.1 19 16 102020 44
2009-09-29 13:07 51°33.152 2°56.455 6.9 19 16 102020 42
2009-09-29 13:08 51°33.157 2°56.481 8.1 20 15.9 102020 47
2009-09-29 13:09 51°33.161 2°56.507 6.1 19 15.9 102020 41
2009-09-29 13:10 51°33.157 2°56.521 6.2 -999 15.9 102020 42
2009-09-29 13:11 51°33.148 2°56.464 8.3 283 16 102010 46
2009-09-29 13:12 51°33.161 2°56.438 7.1 283 15.9 102030 46
2009-09-29 13:13 51°33.174 2°56.447 6.2 284 15.9 102020 41
2009-09-29 13:14 51°33.183 2°56.468 8.6 284 15.9 102020 45
2009-09-29 13:15 51°33.189 2°56.493 6.9 278 16 102030 42
2009-09-29 13:16 51°33.194 2°56.519 6.5 280 16 102030 41
2009-09-29 13:17 51°33.199 2°56.542 4.4 279 16 102030 41
2009-09-29 13:18 51°33.202 2°56.565 4.9 282 16 102030 47
2009-09-29 13:19 51°33.204 2°56.588 6.5 284 16 102030 46
2009-09-29 13:20 51°33.207 2°56.61 6.6 75 16 102020 43
2009-09-29 13:21 51°33.213 2°56.637 7 280 16 102020 41
2009-09-29 13:22 51°33.23 2°56.674 5.8 279 16 102030 43
2009-09-29 13:23 51°33.254 2°56.714 6.7 284 16 102030 44
2009-09-29 13:24 51°33.276 2°56.747 6.7 279 16 102030 44
2009-09-29 13:25 51°33.29 2°56.771 7.5 281 16.1 102030 47
2009-09-29 13:26 51°33.302 2°56.793 9.9 284 16.2 102020 42
2009-09-29 13:27 51°33.309 2°56.816 7.1 284 16.2 102030 43
2009-09-29 13:28 51°33.312 2°56.839 6.1 278 16.1 102030 45
2009-09-29 13:29 51°33.313 2°56.86 4.1 283 16.1 102020 41
2009-09-29 13:30 51°33.313 2°56.879 7 83 16.1 102030 46
2009-09-29 13:31 51°33.315 2°56.899 5.8 283 16.1 102030 41
2009-09-29 13:32 51°33.316 2°56.919 6.9 281 16 102020 42
2009-09-29 13:33 51°33.318 2°56.937 5.9 286 16.1 102020 47
2009-09-29 13:34 51°33.319 2°56.956 4.7 286 16.1 102020 46
2009-09-29 13:35 51°33.319 2°56.974 5.3 279 16.1 102020 47
2009-09-29 13:36 51°33.321 2°56.993 6.7 281 16.2 102020 46
2009-09-29 13:37 51°33.323 2°57.012 4.4 283 16.1 102030 45
2009-09-29 13:38 51°33.324 2°57.029 5 282 16 102030 41
2009-09-29 13:39 51°33.324 2°57.045 5.4 278 16.1 102030 41
2009-09-29 13:40 51°33.324 2°57.06 6.3 278 16 102030 46
2009-09-29 13:41 51°33.324 2°57.077 5.3 281 16 102030 45
2009-09-29 13:42 51°33.324 2°57.093 5.6 283 16.1 102030 41
2009-09-29 13:43 51°33.324 2°57.108 5.1 278 16 102030 46
2009-09-29 13:44 51°33.323 2°57.122 5.9 285 16.1 102030 45
2009-09-29 13:45 51°33.322 2°57.137 6 284 16.1 102030 46
2009-09-29 13:46 51°33.322 2°57.151 5.3 279 16.1 102030 41
2009-09-29 13:47 51°33.321 2°57.165 5.6 287 16.1 102030 40
2009-09-29 13:48 51°33.321 2°57.181 6.5 282 16.1 102020 46
2009-09-29 13:49 51°33.329 2°57.208 5.3 280 16.1 102030 43
2009-09-29 13:50 51°33.353 2°57.297 3.7 77 16 102040 42
2009-09-29 13:51 51°33.302 2°57.394 5.8 17 16.1 102030 47
2009-09-29 13:52 51°33.221 2°57.329 8.7 278 16.1 102020 46
2009-09-29 13:53 51°33.213 2°57.166 10 277 16.1 102030 43
2009-09-29 13:54 51°33.211 2°56.983 8.7 276 16.2 102030 43
2009-09-29 13:55 51°33.187 2°56.799 10.1 279 16.2 102020 46
2009-09-29 13:56 51°33.162 2°56.644 10.3 279 16.1 102020 45
2009-09-29 13:57 51°33.136 2°56.559 8.5 277 16.1 102020 46
2009-09-29 13:58 51°33.118 2°56.505 7.5 350 16.1 102010 44
2009-09-29 13:59 51°33.108 2°56.465 8.3 281 16.1 102020 46
2009-09-29 14:00 51°33.103 2°56.448 7.9 278 16 102020 47
2009-09-29 14:01 51°33.099 2°56.443 7.2 278 16 102020 46
2009-09-29 14:02 51°33.096 2°56.448 7.1 355 16.1 102020 45
2009-09-29 14:03 51°33.093 2°56.461 7 14 16.1 102020 41
2009-09-29 14:04 51°33.088 2°56.473 7.4 19 16.1 102020 41
2009-09-29 14:05 51°33.082 2°56.484 6.8 25 16.1 102020 44
2009-09-29 14:06 51°33.074 2°56.492 7.1 22 16.1 102020 42
2009-09-29 14:07 51°33.066 2°56.501 7.4 13 16.2 102020 42
2009-09-29 14:08 51°33.046 2°56.508 6.4 28 16.3 102020 45
2009-09-29 14:09 51°33.019 2°56.537 5.4 83 16.3 102030 46
2009-09-29 14:10 51°33.009 2°56.6 6.4 77 16.2 102030 46
2009-09-29 14:11 51°33.034 2°56.647 7.8 284 16.2 102030 45
2009-09-29 14:12 51°33.055 2°56.663 7.6 279 16.2 102020 47
2009-09-29 14:13 51°33.072 2°56.669 7.8 283 16.2 102010 43
2009-09-29 14:14 51°33.085 2°56.679 7.7 285 16.3 102010 47
2009-09-29 14:15 51°33.099 2°56.688 7.6 283 16.3 102010 44
2009-09-29 14:16 51°33.116 2°56.696 6 279 16.3 102010 41
2009-09-29 14:17 51°33.136 2°56.7 7.2 284 16.3 102010 43
2009-09-29 14:18 51°33.159 2°56.7 7.3 278 16.3 102000 46
2009-09-29 14:19 51°33.186 2°56.703 7.3 278 16.2 102000 41
2009-09-29 14:20 51°33.23 2°56.677 8.2 279 16.3 102000 42
2009-09-29 14:21 51°33.307 2°56.542 10.2 279 16.3 102000 43
2009-09-29 14:22 51°33.375 2°56.329 11.7 281 16.3 102010 45
2009-09-29 14:23 51°33.406 2°56.068 12.2 284 16.3 101990 42
2009-09-29 14:24 51°33.424 2°55.782 11.6 282 16.3 102000 44
2009-09-29 14:25 51°33.44 2°55.488 11.7 282 16.3 102000 44
2009-09-29 14:26 51°33.435 2°55.196 12.6 277 16.3 101990 43
2009-09-29 14:27 51°33.404 2°54.909 12.5 280 16.3 102000 42
2009-09-29 14:28 51°33.334 2°54.645 11.7 348 16.4 102000 43
2009-09-29 14:29 51°33.177 2°54.547 7.7 4 16.3 102000 46
2009-09-29 14:30 51°32.995 2°54.567 7.5 1 16.3 102000 42
2009-09-29 14:31 51°32.811 2°54.572 7.9 2 16.2 102010 45
2009-09-29 14:32 51°32.627 2°54.548 9 359 16.2 102010 42
2009-09-29 14:33 51°32.445 2°54.516 6.6 3 16.2 102000 44
2009-09-29 14:34 51°32.261 2°54.492 8.9 359 16.2 102010 46
2009-09-29 14:35 51°32.077 2°54.469 6.1 360 16.2 102000 45
2009-09-29 14:36 51°31.891 2°54.448 8.4 3 16.3 102000 43
2009-09-29 14:37 51°31.705 2°54.428 7.6 3 16.2 102000 42
2009-09-29 14:38 51°31.519 2°54.407 7.3 360 16.3 102010 42
2009-09-29 14:39 51°31.332 2°54.39 9.7 -999 16.3 102010 46
2009-09-29 14:40 51°31.146 2°54.368 8.9 359 16.3 102000 47
2009-09-29 14:41 51°30.96 2°54.347 7.8 360 16.2 102020 43
2009-09-29 14:42 51°30.774 2°54.324 9.5 359 16.3 102010 47
2009-09-29 14:43 51°30.588 2°54.297 9 357 16.2 102010 46
2009-09-29 14:44 51°30.401 2°54.275 9.1 -999 16.2 102000 44
2009-09-29 14:45 51°30.212 2°54.25 8.1 358 16.2 102020 42
2009-09-29 14:46 51°30.023 2°54.224 7.3 5 16.3 102000 45
2009-09-29 14:47 51°29.833 2°54.199 9.1 358 16.3 102010 43
2009-09-29 14:48 51°29.643 2°54.173 8.3 359 16.2 102010 44
2009-09-29 14:49 51°29.453 2°54.145 8.6 356 16.3 102010 45
2009-09-29 14:50 51°29.267 2°54.115 9.4 360 16.3 102010 44
2009-09-29 14:51 51°29.08 2°54.083 8.5 3 16.3 102010 42
2009-09-29 14:52 51°28.845 2°54.043 8.6 360 16.3 102010 42
2009-09-29 14:53 51°28.658 2°54.01 8.5 -999 16.3 102000 46
2009-09-29 14:54 51°28.468 2°53.979 8.9 1 16.3 102000 42
2009-09-29 14:55 51°28.28 2°53.95 7.9 3 16.3 102010 43
2009-09-29 14:56 51°28.091 2°53.923 8 2 16.3 102010 44
2009-09-29 14:57 51°27.902 2°53.898 7.9 5 16.3 102010 46
2009-09-29 14:58 51°27.713 2°53.867 8.3 2 16.4 102010 46
2009-09-29 14:59 51°27.523 2°53.834 8.5 360 16.4 102000 47
2009-09-29 15:00 51°27.333 2°53.799 8.3 3 16.3 102000 46
2009-09-29 15:01 51°27.142 2°53.762 6.9 2 16.4 102010 47
2009-09-29 15:02 51°26.95 2°53.728 8.8 2 16.4 102010 47
2009-09-29 15:03 51°26.759 2°53.697 9.8 357 16.4 102000 47
2009-09-29 15:04 51°26.57 2°53.658 4.4 359 16.4 102010 43
2009-09-29 15:05 51°26.379 2°53.622 7.7 4 16.4 102010 46
2009-09-29 15:06 51°26.186 2°53.59 8.6 358 16.4 102000 42
2009-09-29 15:07 51°25.998 2°53.557 7.6 4 16.4 102000 44
2009-09-29 15:08 51°25.81 2°53.53 8.8 360 16.5 102000 47
2009-09-29 15:09 51°25.622 2°53.5 9.5 359 16.5 102000 47
2009-09-29 15:10 51°25.43 2°53.469 8.6 357 16.5 102000 46
2009-09-29 15:11 51°25.241 2°53.434 9.1 352 16.3 102000 42
2009-09-29 15:12 51°25.052 2°53.399 8.7 357 16.4 101990 43
2009-09-29 15:13 51°24.863 2°53.363 9.1 359 16.4 102000 43
2009-09-29 15:14 51°24.671 2°53.325 10.7 359 16.3 102000 47
2009-09-29 15:15 51°24.484 2°53.288 8.8 -999 16.3 101990 43
2009-09-29 15:16 51°24.294 2°53.254 8.8 354 16.3 102000 45
2009-09-29 15:17 51°24.102 2°53.221 8.3 352 16.4 101980 45
2009-09-29 15:18 51°23.909 2°53.184 9.4 356 16.4 101990 47
2009-09-29 15:19 51°23.715 2°53.148 7.8 357 16.4 101990 43
2009-09-29 15:20 51°23.52 2°53.111 9.2 359 16.3 102000 46
2009-09-29 15:21 51°23.327 2°53.072 9.4 359 16.4 102000 46
2009-09-29 15:22 51°23.134 2°53.033 8.6 357 16.3 102000 43
2009-09-29 15:23 51°22.941 2°52.993 8.6 354 16.4 102000 42
2009-09-29 15:24 51°22.748 2°52.958 9 357 16.4 102000 43
2009-09-29 15:25 51°22.555 2°52.917 8.1 357 16.4 102010 43
2009-09-29 15:26 51°22.363 2°52.881 8.2 360 16.4 102000 45
2009-09-29 15:27 51°22.17 2°52.841 7.7 359 16.4 102010 42
2009-09-29 15:28 51°21.979 2°52.802 7.7 2 16.4 102010 44
2009-09-29 15:29 51°21.787 2°52.765 8 1 16.4 102010 42
2009-09-29 15:30 51°21.595 2°52.724 7.8 360 16.4 102010 43
2009-09-29 15:31 51°21.401 2°52.686 8.5 358 16.4 102010 43
2009-09-29 15:32 51°21.208 2°52.647 7.3 357 16.5 102010 47
2009-09-29 15:33 51°21.016 2°52.61 7.4 360 16.5 102000 47
2009-09-29 15:34 51°20.823 2°52.574 9.2 1 16.4 102010 48
2009-09-29 15:35 51°20.63 2°52.534 8.1 355 16.5 102010 46
2009-09-29 15:36 51°20.436 2°52.497 8.7 358 16.4 102000 44
2009-09-29 15:37 51°20.242 2°52.462 8.4 357 16.4 102000 42
2009-09-29 15:38 51°20.047 2°52.424 8.4 357 16.4 102000 44
2009-09-29 15:39 51°19.852 2°52.387 7.7 358 16.5 102000 44
2009-09-29 15:40 51°19.658 2°52.35 8.3 359 16.5 102000 44
2009-09-29 15:41 51°19.463 2°52.314 9 357 16.5 102010 43
2009-09-29 15:42 51°19.269 2°52.276 9.1 354 16.5 102010 47
2009-09-29 15:43 51°19.074 2°52.237 8.5 358 16.5 102010 44
2009-09-29 15:44 51°18.881 2°52.196 7.4 356 16.5 102010 43
2009-09-29 15:45 51°18.688 2°52.162 7.9 358 16.5 102010 42
2009-09-29 15:46 51°18.495 2°52.141 6.2 2 16.5 102000 46
2009-09-29 15:47 51°18.3 2°52.135 7.4 1 16.5 102000 47
2009-09-29 15:48 51°18.104 2°52.13 6.6 360 16.4 102000 46
2009-09-29 15:49 51°17.908 2°52.12 6.9 358 16.5 102000 48
2009-09-29 15:50 51°17.711 2°52.108 7 358 16.5 102000 45
2009-09-29 15:51 51°17.516 2°52.109 6.3 1 16.5 102000 45
2009-09-29 15:52 51°17.323 2°52.161 5.1 2 16.6 102000 43
2009-09-29 15:53 51°17.138 2°52.253 5.2 6 16.5 102010 43
2009-09-29 15:55 51°16.926 2°52.383 5.4 4 16.6 102010 42
2009-09-29 15:56 51°16.744 2°52.487 4.6 1 16.6 102010 46
2009-09-29 15:57 51°16.563 2°52.594 4 4 16.6 102010 46
2009-09-29 15:58 51°16.382 2°52.697 4.5 -999 16.6 102010 45
2009-09-29 15:59 51°16.201 2°52.795 5 3 16.6 102010 42
2009-09-29 16:00 51°16.018 2°52.889 5.8 360 16.6 102010 44
2009-09-29 16:01 51°15.837 2°52.986 5.5 1 16.6 102010 47
2009-09-29 16:02 51°15.663 2°53.103 4.1 3 16.6 102020 41
2009-09-29 16:03 51°15.512 2°53.154 4.7 6 16.6 102010 42
2009-09-29 16:04 51°15.373 2°53.179 5.4 6 16.7 102020 47
2009-09-29 16:05 51°15.237 2°53.23 5.6 9 16.6 102020 46
2009-09-29 16:06 51°15.13 2°53.285 4.7 14 16.7 102030 47
2009-09-29 16:07 51°15.041 2°53.341 4.8 19 16.8 102020 43
2009-09-29 16:08 51°14.924 2°53.458 4.3 10 16.7 102030 42
2009-09-29 16:09 51°14.805 2°53.63 2.6 6 16.7 102030 43
2009-09-29 16:10 51°14.702 2°53.832 3.3 10 16.7 102030 47
2009-09-29 16:11 51°14.611 2°54.049 2.4 4 16.7 102030 46
2009-09-29 16:12 51°14.536 2°54.276 2 12 16.7 102030 47
2009-09-29 16:13 51°14.488 2°54.521 1.3 5 16.7 102030 45
2009-09-29 16:14 51°14.432 2°54.761 1.3 8 16.7 102030 41
2009-09-29 16:15 51°14.365 2°54.997 2 17 16.7 102030 45
2009-09-29 16:16 51°14.282 2°55.212 2.7 1 16.7 102030 48
2009-09-29 16:17 51°14.193 2°55.347 3.1 7 16.7 102030 47
2009-09-29 16:18 51°14.091 2°55.434 2.6 356 16.7 102030 42
2009-09-29 16:19 51°13.988 2°55.509 2.1 349 16.7 102030 46
2009-09-29 16:20 51°13.896 2°55.58 3 22 16.7 102030 42
2009-09-29 16:21 51°13.812 2°55.647 2 26 16.7 102040 42
2009-09-29 16:22 51°13.751 2°55.727 1 349 16.8 102030 43
2009-09-29 16:23 51°13.706 2°55.813 1 44 16.8 102040 46
2009-09-29 16:24 51°13.675 2°55.901 3.4 42 16.9 102040 45
2009-09-29 16:25 51°13.663 2°55.954 4.4 20 16.9 102040 47